Location: Bouchavesnes-Bergen
(49.9859°N, 2.9203°E)
Time: 22:43:58
(UTC+00:00)

NOAA 16 DEB - Pass Details

Date: 29 September 2021
Orbit: 798 x 841 km, 98.8° (Epoch: 23 October)

Event Time Altitude Azimuth Distance (km) Brightness Sun altitude
Exits shadow 22:11:31 19° 3° (N) 1,837 ? -39.3°
Drops below altitude 10° 22:13:03 10° 356° (N) 2,387 ? -39.4°
Sets 22:15:28 0° 350° (N) 3,320 ? -39.6°
